Time,TemperatureF,DewpointF,PressureIn,WindDirection,WindDirectionDegrees,WindSpeedMPH,WindSpeedGustMPH,Humidity,HourlyPrecipIn,Conditions,Clouds,dailyrainin,SoftwareType,DateUTC
2013-06-24 00:03:00,78.1,32.1,29.84,SE,135,1.8,1.8,19,0.00,,,0.00,WUHU216HW,2013-06-24 07:03:00,
2013-06-24 00:14:00,77.8,31.9,29.84,South,180,0.9,2.0,19,0.00,,,0.00,WUHU216HW,2013-06-24 07:14:00,
2013-06-24 00:24:00,77.4,31.6,29.84,West,270,1.1,1.8,19,0.00,,,0.00,WUHU216HW,2013-06-24 07:24:00,
2013-06-24 00:34:00,76.9,33.9,29.84,SE,135,1.8,3.6,21,0.00,,,0.00,WUHU216HW,2013-06-24 07:34:00,
2013-06-24 00:44:00,76.3,34.5,29.85,NNE,23,0.4,1.8,22,0.00,,,0.00,WUHU216HW,2013-06-24 07:44:00,
2013-06-24 00:54:00,75.6,33.8,29.85,SSE,158,0.0,1.1,22,0.00,,,0.00,WUHU216HW,2013-06-24 07:54:00,
2013-06-24 01:04:00,75.1,34.5,29.85,SE,135,0.0,0.4,23,0.00,,,0.00,WUHU216HW,2013-06-24 08:04:00,
2013-06-24 01:14:00,74.5,34.0,29.85,South,180,0.4,1.1,23,0.00,,,0.00,WUHU216HW,2013-06-24 08:14:00,
2013-06-24 01:24:00,74.0,33.6,29.85,South,180,0.2,0.7,23,0.00,,,0.00,WUHU216HW,2013-06-24 08:24:00,
2013-06-24 01:34:00,73.4,34.1,29.85,SE,135,2.0,2.0,24,0.00,,,0.00,WUHU216HW,2013-06-24 08:34:00,
2013-06-24 01:44:00,73.1,32.8,29.85,ESE,113,1.3,1.3,23,0.00,,,0.00,WUHU216HW,2013-06-24 08:44:00,
2013-06-24 01:54:00,72.7,32.5,29.85,ESE,113,1.1,1.6,23,0.00,,,0.00,WUHU216HW,2013-06-24 08:54:00,
2013-06-24 02:04:00,72.5,32.3,29.86,SW,225,0.4,0.9,23,0.00,,,0.00,WUHU216HW,2013-06-24 09:04:00,
2013-06-24 02:14:00,72.2,33.0,29.85,SE,135,0.7,1.1,24,0.00,,,0.00,WUHU216HW,2013-06-24 09:14:00,
2013-06-24 02:25:00,71.6,33.6,29.85,East,90,0.4,2.0,25,0.00,,,0.00,WUHU216HW,2013-06-24 09:25:00,
2013-06-24 02:35:00,71.5,33.4,29.86,East,90,1.6,3.6,25,0.00,,,0.00,WUHU216HW,2013-06-24 09:35:00,
2013-06-24 02:45:00,71.6,32.6,29.85,SW,225,0.9,2.0,24,0.00,,,0.00,WUHU216HW,2013-06-24 09:45:00,
2013-06-24 02:55:00,71.5,31.4,29.85,SE,135,2.5,2.5,23,0.00,,,0.00,WUHU216HW,2013-06-24 09:55:00,
2013-06-24 03:05:00,71.3,31.2,29.86,SE,135,0.4,2.2,23,0.00,,,0.00,WUHU216HW,2013-06-24 10:05:00,
2013-06-24 03:15:00,71.3,32.2,29.86,SSW,203,0.4,1.6,24,0.00,,,0.00,WUHU216HW,2013-06-24 10:15:00,
2013-06-24 03:25:00,70.9,32.0,29.86,SSW,203,0.7,1.3,24,0.00,,,0.00,WUHU216HW,2013-06-24 10:25:00,
2013-06-24 03:35:00,70.6,31.7,29.86,WSW,248,0.2,1.3,24,0.00,,,0.00,WUHU216HW,2013-06-24 10:35:00,
2013-06-24 03:45:00,70.2,32.3,29.86,SW,225,0.4,0.9,25,0.00,,,0.00,WUHU216HW,2013-06-24 10:45:00,
2013-06-24 03:55:00,69.7,32.9,29.86,SE,135,2.2,3.4,26,0.00,,,0.00,WUHU216HW,2013-06-24 10:55:00,
2013-06-24 04:06:00,69.8,32.0,29.86,SSW,203,1.8,2.0,25,0.00,,,0.00,WUHU216HW,2013-06-24 11:06:00,
2013-06-24 04:16:00,69.8,32.0,29.87,NNW,338,0.0,1.8,25,0.00,,,0.00,WUHU216HW,2013-06-24 11:16:00,
2013-06-24 04:26:00,69.3,32.6,29.87,West,270,0.7,1.8,26,0.00,,,0.00,WUHU216HW,2013-06-24 11:26:00,
2013-06-24 04:36:00,68.8,34.1,29.87,SW,225,1.1,1.6,28,0.00,,,0.00,WUHU216HW,2013-06-24 11:36:00,
2013-06-24 04:46:00,68.4,33.9,29.88,ESE,113,0.0,0.7,28,0.00,,,0.00,WUHU216HW,2013-06-24 11:46:00,
2013-06-24 04:56:00,68.0,34.5,29.88,West,270,0.0,0.7,29,0.00,,,0.00,WUHU216HW,2013-06-24 11:56:00,
2013-06-24 05:06:00,67.7,34.2,29.88,West,270,0.0,0.0,29,0.00,,,0.00,WUHU216HW,2013-06-24 12:06:00,
2013-06-24 05:16:00,67.3,34.9,29.88,SW,225,1.1,1.1,30,0.00,,,0.00,WUHU216HW,2013-06-24 12:16:00,
2013-06-24 05:26:00,67.1,35.5,29.89,SSE,158,0.9,0.9,31,0.00,,,0.00,WUHU216HW,2013-06-24 12:26:00,
2013-06-24 05:36:00,67.0,34.6,29.89,SE,135,1.1,2.5,30,0.00,,,0.00,WUHU216HW,2013-06-24 12:36:00,
2013-06-24 05:46:00,67.0,33.6,29.89,SE,135,0.0,1.8,29,0.00,,,0.00,WUHU216HW,2013-06-24 12:46:00,
2013-06-24 05:56:00,67.3,33.9,29.89,South,180,0.4,0.9,29,0.00,,,0.00,WUHU216HW,2013-06-24 12:56:00,
2013-06-24 06:06:00,68.4,34.8,29.89,SE,135,0.4,1.3,29,0.00,,,0.00,WUHU216HW,2013-06-24 13:06:00,
2013-06-24 06:17:00,72.5,37.4,29.90,South,180,1.8,1.8,28,0.00,,,0.00,WUHU216HW,2013-06-24 13:17:00,
2013-06-24 06:27:00,73.4,36.1,29.90,South,180,1.1,1.3,26,0.00,,,0.00,WUHU216HW,2013-06-24 13:27:00,
2013-06-24 06:37:00,73.3,37.0,29.90,SSE,158,0.0,1.8,27,0.00,,,0.00,WUHU216HW,2013-06-24 13:37:00,
2013-06-24 06:47:00,74.0,38.6,29.90,SSW,203,0.4,0.9,28,0.00,,,0.00,WUHU216HW,2013-06-24 13:47:00,
2013-06-24 06:57:00,75.2,40.8,29.90,SSW,203,0.9,0.9,29,0.00,,,0.00,WUHU216HW,2013-06-24 13:57:00,
2013-06-24 07:07:00,76.3,41.7,29.90,ESE,113,0.2,1.1,29,0.00,,,0.00,WUHU216HW,2013-06-24 14:07:00,
2013-06-24 07:18:00,77.8,42.9,29.90,NNE,23,0.4,2.5,29,0.00,,,0.00,WUHU216HW,2013-06-24 14:18:00,
2013-06-24 07:28:00,78.7,42.6,29.90,NW,315,1.8,1.8,28,0.00,,,0.00,WUHU216HW,2013-06-24 14:28:00,
2013-06-24 07:38:00,80.1,41.8,29.91,North,0,0.9,2.5,26,0.00,,,0.00,WUHU216HW,2013-06-24 14:38:00,
2013-06-24 07:48:00,81.5,43.0,29.91,NE,45,5.6,5.6,26,0.00,,,0.00,WUHU216HW,2013-06-24 14:48:00,
2013-06-24 07:58:00,83.2,43.3,29.91,NW,315,1.1,3.4,25,0.00,,,0.00,WUHU216HW,2013-06-24 14:58:00,
2013-06-24 08:08:00,84.4,42.2,29.92,NNW,338,2.9,4.0,23,0.00,,,0.00,WUHU216HW,2013-06-24 15:08:00,
2013-06-24 08:18:00,85.5,41.0,29.92,NW,315,2.0,4.5,21,0.00,,,0.00,WUHU216HW,2013-06-24 15:18:00,
2013-06-24 08:28:00,86.8,39.2,29.92,NNE,23,2.0,4.3,19,0.00,,,0.00,WUHU216HW,2013-06-24 15:28:00,
2013-06-24 08:38:00,87.1,39.6,29.92,North,0,2.2,2.7,19,0.00,,,0.00,WUHU216HW,2013-06-24 15:38:00,
2013-06-24 08:48:00,87.8,38.5,29.92,NNW,338,2.9,3.8,18,0.00,,,0.00,WUHU216HW,2013-06-24 15:48:00,
2013-06-24 08:58:00,88.6,39.1,29.92,NW,315,0.4,4.7,18,0.00,,,0.00,WUHU216HW,2013-06-24 15:58:00,
2013-06-24 09:08:00,89.3,37.9,29.92,WSW,248,2.5,4.9,17,0.00,,,0.00,WUHU216HW,2013-06-24 16:08:00,
2013-06-24 09:19:00,90.0,38.4,29.92,NNE,23,3.1,3.8,17,0.00,,,0.00,WUHU216HW,2013-06-24 16:19:00,
2013-06-24 09:29:00,90.5,35.4,29.92,NNE,23,2.2,4.7,15,0.00,,,0.00,WUHU216HW,2013-06-24 16:29:00,
2013-06-24 09:39:00,91.1,37.5,29.92,ENE,68,1.1,6.0,16,0.00,,,0.00,WUHU216HW,2013-06-24 16:39:00,
2013-06-24 09:49:00,91.6,36.3,29.91,WNW,293,1.6,4.3,15,0.00,,,0.00,WUHU216HW,2013-06-24 16:49:00,
2013-06-24 09:59:00,93.1,35.6,29.92,West,270,4.7,4.7,14,0.00,,,0.00,WUHU216HW,2013-06-24 16:59:00,
2013-06-24 10:10:00,94.1,34.7,29.92,NNW,338,2.9,5.8,13,0.00,,,0.00,WUHU216HW,2013-06-24 17:10:00,
2013-06-24 10:20:00,94.9,33.5,29.92,West,270,8.1,8.1,12,0.00,,,0.00,WUHU216HW,2013-06-24 17:20:00,
2013-06-24 10:30:00,95.6,34.0,29.92,WNW,293,4.9,7.4,12,0.00,,,0.00,WUHU216HW,2013-06-24 17:30:00,
2013-06-24 10:40:00,96.1,32.6,29.92,West,270,4.0,6.7,11,0.00,,,0.00,WUHU216HW,2013-06-24 17:40:00,
2013-06-24 10:50:00,96.8,33.1,29.91,West,270,6.7,6.7,11,0.00,,,0.00,WUHU216HW,2013-06-24 17:50:00,
2013-06-24 11:00:00,97.4,33.6,29.91,SW,225,4.3,6.3,11,0.00,,,0.00,WUHU216HW,2013-06-24 18:00:00,
2013-06-24 11:10:00,98.1,34.1,29.91,WSW,248,4.0,8.3,11,0.00,,,0.00,WUHU216HW,2013-06-24 18:10:00,
2013-06-24 11:20:00,98.3,36.1,29.90,WNW,293,5.4,7.6,12,0.00,,,0.00,WUHU216HW,2013-06-24 18:20:00,
2013-06-24 11:30:00,98.6,34.6,29.90,NNW,338,2.5,9.8,11,0.00,,,0.00,WUHU216HW,2013-06-24 18:30:00,
2013-06-24 11:40:00,99.0,34.8,29.90,NNW,338,0.7,4.9,11,0.00,,,0.00,WUHU216HW,2013-06-24 18:40:00,
2013-06-24 11:50:00,99.5,33.5,29.89,WSW,248,2.7,7.6,10,0.00,,,0.00,WUHU216HW,2013-06-24 18:50:00,
2013-06-24 12:00:00,100.6,34.3,29.89,West,270,5.4,10.3,8,0.00,,,0.00,WUHU216HW,2013-06-24 19:00:00,
2013-06-24 12:11:00,100.6,34.3,29.89,West,270,6.5,13.6,7,0.00,,,0.00,WUHU216HW,2013-06-24 19:11:00,
2013-06-24 12:21:00,101.2,34.8,29.88,West,270,6.9,9.2,7,0.00,,,0.00,WUHU216HW,2013-06-24 19:21:00,
2013-06-24 12:31:00,101.0,34.6,29.88,WNW,293,12.3,12.3,7,0.00,,,0.00,WUHU216HW,2013-06-24 19:31:00,
2013-06-24 12:41:00,101.0,34.6,29.88,WNW,293,11.4,11.4,7,0.00,,,0.00,WUHU216HW,2013-06-24 19:41:00,
2013-06-24 12:51:00,101.5,34.9,29.88,West,270,4.0,10.1,7,0.00,,,0.00,WUHU216HW,2013-06-24 19:51:00,
2013-06-24 13:01:00,101.9,35.2,29.88,WNW,293,4.3,14.5,8,0.00,,,0.00,WUHU216HW,2013-06-24 20:01:00,
2013-06-24 13:11:00,102.2,35.5,29.87,WNW,293,6.3,6.9,7,0.00,,,0.00,WUHU216HW,2013-06-24 20:11:00,
2013-06-24 13:21:00,102.8,35.9,29.87,West,270,8.5,8.7,7,0.00,,,0.00,WUHU216HW,2013-06-24 20:21:00,
2013-06-24 13:31:00,102.6,35.7,29.86,NW,315,8.3,9.2,7,0.00,,,0.00,WUHU216HW,2013-06-24 20:31:00,
2013-06-24 13:41:00,102.8,35.9,29.86,NNW,338,8.9,8.9,7,0.00,,,0.00,WUHU216HW,2013-06-24 20:41:00,
2013-06-24 13:51:00,102.8,35.9,29.86,WNW,293,3.4,10.3,7,0.00,,,0.00,WUHU216HW,2013-06-24 20:51:00,
2013-06-24 14:01:00,103.0,36.0,29.86,WNW,293,4.5,10.5,7,0.00,,,0.00,WUHU216HW,2013-06-24 21:01:00,
2013-06-24 14:12:00,103.3,36.4,29.85,West,270,10.7,14.1,7,0.00,,,0.00,WUHU216HW,2013-06-24 21:12:00,
2013-06-24 14:22:00,103.7,36.6,29.85,North,0,4.7,7.6,7,0.00,,,0.00,WUHU216HW,2013-06-24 21:22:00,
2013-06-24 14:32:00,103.5,36.5,29.85,NNW,338,7.6,12.5,7,0.00,,,0.00,WUHU216HW,2013-06-24 21:32:00,
2013-06-24 14:42:00,103.5,36.5,29.85,NE,45,4.7,9.8,7,0.00,,,0.00,WUHU216HW,2013-06-24 21:42:00,
2013-06-24 14:52:00,103.5,36.5,29.85,WSW,248,6.9,10.7,7,0.00,,,0.00,WUHU216HW,2013-06-24 21:52:00,
2013-06-24 15:02:00,103.7,36.6,29.84,NW,315,6.3,6.9,7,0.00,,,0.00,WUHU216HW,2013-06-24 22:02:00,
2013-06-24 15:12:00,103.5,36.5,29.84,NW,315,6.5,10.5,7,0.00,,,0.00,WUHU216HW,2013-06-24 22:12:00,
2013-06-24 15:22:00,103.3,36.4,29.84,WSW,248,4.3,14.8,7,0.00,,,0.00,WUHU216HW,2013-06-24 22:22:00,
2013-06-24 15:32:00,103.1,36.2,29.83,NNW,338,12.1,12.1,6,0.00,,,0.00,WUHU216HW,2013-06-24 22:32:00,
2013-06-24 15:42:00,102.8,35.9,29.83,NNW,338,4.9,9.4,6,0.00,,,0.00,WUHU216HW,2013-06-24 22:42:00,
2013-06-24 15:52:00,103.0,36.0,29.83,NW,315,9.4,9.6,6,0.00,,,0.00,WUHU216HW,2013-06-24 22:52:00,
2013-06-24 16:02:00,102.8,35.9,29.82,NNW,338,10.1,10.1,6,0.00,,,0.00,WUHU216HW,2013-06-24 23:02:00,
2013-06-24 16:12:00,102.6,35.7,29.82,North,0,7.6,10.5,6,0.00,,,0.00,WUHU216HW,2013-06-24 23:12:00,
2013-06-24 16:22:00,101.9,35.2,29.82,NNW,338,15.9,15.9,5,0.00,,,0.00,WUHU216HW,2013-06-24 23:22:00,
2013-06-24 16:33:00,101.9,35.2,29.82,NW,315,5.1,9.4,5,0.00,,,0.00,WUHU216HW,2013-06-24 23:33:00,
2013-06-24 16:43:00,101.7,35.1,29.82,WNW,293,8.3,13.6,5,0.00,,,0.00,WUHU216HW,2013-06-24 23:43:00,
2013-06-24 16:53:00,101.5,34.9,29.82,WNW,293,5.4,8.5,6,0.00,,,0.00,WUHU216HW,2013-06-24 23:53:00,
2013-06-24 17:03:00,101.0,34.6,29.82,SSE,158,4.7,10.5,5,0.00,,,0.00,WUHU216HW,2013-06-25 00:03:00,
2013-06-24 17:13:00,100.8,34.5,29.82,NNE,23,9.8,13.6,5,0.00,,,0.00,WUHU216HW,2013-06-25 00:13:00,
2013-06-24 17:23:00,100.4,34.2,29.82,North,0,9.2,9.4,6,0.00,,,0.00,WUHU216HW,2013-06-25 00:23:00,
2013-06-24 17:34:00,99.9,33.8,29.82,North,0,10.3,11.0,5,0.00,,,0.00,WUHU216HW,2013-06-25 00:34:00,
2013-06-24 17:44:00,99.4,33.3,29.82,WNW,293,8.5,9.6,5,0.00,,,0.00,WUHU216HW,2013-06-25 00:44:00,
2013-06-24 17:54:00,98.6,32.8,29.82,NW,315,7.4,10.3,5,0.00,,,0.00,WUHU216HW,2013-06-25 00:54:00,
2013-06-24 18:04:00,98.1,32.3,29.82,WSW,248,3.1,9.6,5,0.00,,,0.00,WUHU216HW,2013-06-25 01:04:00,
2013-06-24 18:14:00,97.2,31.6,29.82,SSW,203,4.7,6.3,5,0.00,,,0.00,WUHU216HW,2013-06-25 01:14:00,
2013-06-24 18:24:00,96.8,31.3,29.83,NW,315,4.0,8.5,5,0.00,,,0.00,WUHU216HW,2013-06-25 01:24:00,
2013-06-24 18:34:00,96.8,31.3,29.83,NW,315,4.7,6.5,6,0.00,,,0.00,WUHU216HW,2013-06-25 01:34:00,
2013-06-24 18:45:00,96.5,31.1,29.83,NW,315,1.6,6.9,6,0.00,,,0.00,WUHU216HW,2013-06-25 01:45:00,
2013-06-24 18:55:00,95.9,30.7,29.83,NW,315,2.9,5.6,6,0.00,,,0.00,WUHU216HW,2013-06-25 01:55:00,
2013-06-24 19:05:00,95.4,30.3,29.83,NNW,338,1.8,5.4,6,0.00,,,0.00,WUHU216HW,2013-06-25 02:05:00,
2013-06-24 19:15:00,94.7,29.8,29.84,WNW,293,2.9,6.3,6,0.00,,,0.00,WUHU216HW,2013-06-25 02:15:00,
2013-06-24 19:25:00,94.1,29.3,29.84,NW,315,2.0,5.4,7,0.00,,,0.00,WUHU216HW,2013-06-25 02:25:00,
2013-06-24 19:35:00,93.4,28.8,29.85,West,270,2.0,4.9,7,0.00,,,0.00,WUHU216HW,2013-06-25 02:35:00,
2013-06-24 19:45:00,92.9,28.4,29.85,NNW,338,4.0,4.0,8,0.00,,,0.00,WUHU216HW,2013-06-25 02:45:00,
2013-06-24 19:55:00,92.2,27.9,29.85,NW,315,2.5,4.7,8,0.00,,,0.00,WUHU216HW,2013-06-25 02:55:00,
2013-06-24 20:06:00,91.6,27.5,29.85,NNW,338,1.8,2.2,8,0.00,,,0.00,WUHU216HW,2013-06-25 03:06:00,
2013-06-24 20:16:00,90.7,26.8,29.86,NNW,338,0.9,3.4,10,0.00,,,0.00,WUHU216HW,2013-06-25 03:16:00,
2013-06-24 20:26:00,90.2,26.4,29.86,North,0,0.2,0.9,10,0.00,,,0.00,WUHU216HW,2013-06-25 03:26:00,
2013-06-24 20:36:00,89.3,25.7,29.87,NNW,338,1.8,1.8,10,0.00,,,0.00,WUHU216HW,2013-06-25 03:36:00,
2013-06-24 20:47:00,88.6,26.9,29.87,NNW,338,1.1,1.8,11,0.00,,,0.00,WUHU216HW,2013-06-25 03:47:00,
2013-06-24 20:57:00,87.8,28.1,29.87,NNW,338,1.3,2.5,12,0.00,,,0.00,WUHU216HW,2013-06-25 03:57:00,
2013-06-24 21:07:00,87.3,27.6,29.88,NW,315,1.8,2.2,12,0.00,,,0.00,WUHU216HW,2013-06-25 04:07:00,
2013-06-24 21:17:00,86.8,29.0,29.89,NW,315,1.8,3.1,13,0.00,,,0.00,WUHU216HW,2013-06-25 04:17:00,
2013-06-24 21:27:00,86.2,30.3,29.89,NW,315,0.4,2.2,14,0.00,,,0.00,WUHU216HW,2013-06-25 04:27:00,
2013-06-24 21:37:00,85.5,31.3,29.90,NNW,338,1.8,1.8,15,0.00,,,0.00,WUHU216HW,2013-06-25 04:37:00,
2013-06-24 21:47:00,85.0,32.6,29.90,NW,315,0.0,1.1,16,0.00,,,0.00,WUHU216HW,2013-06-25 04:47:00,
2013-06-24 21:57:00,84.2,33.8,29.90,North,0,0.0,0.7,17,0.00,,,0.00,WUHU216HW,2013-06-25 04:57:00,
2013-06-24 22:07:00,83.5,33.2,29.91,NNW,338,0.4,0.7,17,0.00,,,0.00,WUHU216HW,2013-06-25 05:07:00,
2013-06-24 22:17:00,83.0,32.8,29.91,West,270,0.4,1.6,17,0.00,,,0.00,WUHU216HW,2013-06-25 05:17:00,
2013-06-24 22:27:00,82.6,34.2,29.91,WNW,293,0.7,1.1,18,0.00,,,0.00,WUHU216HW,2013-06-25 05:27:00,
2013-06-24 22:38:00,82.1,33.8,29.91,WSW,248,0.0,0.9,18,0.00,,,0.00,WUHU216HW,2013-06-25 05:38:00,
2013-06-24 22:48:00,81.7,33.5,29.92,SSE,158,0.7,0.9,18,0.00,,,0.00,WUHU216HW,2013-06-25 05:48:00,
2013-06-24 22:58:00,81.0,34.6,29.92,SSE,158,0.4,1.1,19,0.00,,,0.00,WUHU216HW,2013-06-25 05:58:00,
2013-06-24 23:08:00,80.3,37.8,29.92,East,90,0.4,1.1,22,0.00,,,0.00,WUHU216HW,2013-06-25 06:08:00,
2013-06-24 23:18:00,79.6,39.3,29.92,ESE,113,0.0,0.7,24,0.00,,,0.00,WUHU216HW,2013-06-25 06:18:00,
2013-06-24 23:28:00,78.8,38.5,29.92,NE,45,0.4,0.7,24,0.00,,,0.00,WUHU216HW,2013-06-25 06:28:00,
2013-06-24 23:38:00,78.1,38.0,29.92,North,0,0.0,0.0,24,0.00,,,0.00,WUHU216HW,2013-06-25 06:38:00,
2013-06-24 23:48:00,77.8,38.7,29.92,North,0,0.0,0.0,25,0.00,,,0.00,WUHU216HW,2013-06-25 06:48:00,
2013-06-24 23:58:00,77.4,38.4,29.92,North,0,0.0,0.2,25,0.00,,,0.00,WUHU216HW,2013-06-25 06:58:00,